This is the latest recevied weather packets stored in our database for station/object IK2YOU-3. If no packets are shown the sender has not sent any weather packets the latest 1 day(s).
| Time | Temp. | Humidity | Pressure | Rain* | Wind** | Luminosity | Snow |
|---|---|---|---|---|---|---|---|
| 1777992976 | 15° C | 77% | 1010.2 hPa | 0.25 mm | 0.45 m/s, 60° | 12 W/m² | - |
| 1777992246 | 15° C | 77% | 1010.2 hPa | 0.51 mm | 0.89 m/s, 98° | 15 W/m² | - |
| 1777991644 | 15° C | 77% | 1010.2 hPa | 0.51 mm | 0.89 m/s, 63° | 39 W/m² | - |
| 1777991173 | 15° C | 77% | 1010.3 hPa | 0.51 mm | 0.45 m/s, 53° | 28 W/m² | - |
| 1777990444 | 15° C | 78% | 1010.3 hPa | 0.76 mm | 0.45 m/s, 90° | 46 W/m² | - |
| 1777989970 | 15° C | 79% | 1010.3 hPa | 1.02 mm | 0.45 m/s, 92° | 49 W/m² | - |
| 1777989244 | 15° C | 81% | 1010.4 hPa | 0.76 mm | 0.45 m/s, 103° | 44 W/m² | - |
| 1777988644 | 15.56° C | 82% | 1010.6 hPa | 0.51 mm | 0.45 m/s, 103° | 34 W/m² | - |
| 1777988044 | 15.56° C | 84% | 1010.5 hPa | 0.51 mm | 0 m/s | 86 W/m² | - |
| 1777987443 | 15.56° C | 85% | 1010.5 hPa | 0.51 mm | 0 m/s | 46 W/m² | - |
| 1777986844 | 15.56° C | 86% | 1010.6 hPa | 0.25 mm | 0 m/s | 42 W/m² | - |
| 1777986243 | 15.56° C | 86% | 1010.5 hPa | 0 mm | 0 m/s | 28 W/m² | - |
| 1777985644 | 16.11° C | 85% | 1010.6 hPa | 0 mm | 0 m/s | 43 W/m² | - |
| 1777985044 | 16.11° C | 84% | 1010.6 hPa | 0 mm | 0.45 m/s, 116° | 44 W/m² | - |
| 1777984443 | 16.11° C | 83% | 1010.6 hPa | 0 mm | 1.34 m/s, 88° | 44 W/m² | - |
| 1777983843 | 16.67° C | 83% | 1010.6 hPa | 0 mm | 1.34 m/s, 86° | 51 W/m² | - |
| 1777983370 | 16.67° C | 82% | 1010.5 hPa | 0 mm | 0.89 m/s, 99° | 136 W/m² | - |
| 1777982645 | 16.67° C | 82% | 1010.5 hPa | 0 mm | 1.34 m/s, 100° | 209 W/m² | - |
| 1777982044 | 16.67° C | 84% | 1010.6 hPa | 0 mm | 0.89 m/s, 117° | 344 W/m² | - |
| 1777981444 | 16.67° C | 85% | 1010.6 hPa | 0 mm | 1.79 m/s, 86° | 175 W/m² | - |
| 1777980844 | 16.11° C | 85% | 1010.6 hPa | 0 mm | 0.89 m/s, 96° | 281 W/m² | - |
| 1777980244 | 15.56° C | 85% | 1010.6 hPa | 0 mm | 0.89 m/s, 47° | 235 W/m² | - |
| 1777979644 | 15.56° C | 86% | 1010.7 hPa | 0 mm | 0.45 m/s, 90° | 147 W/m² | - |
| 1777979057 | 15.56° C | 85% | 1010.8 hPa | 0 mm | 0.45 m/s, 58° | 98 W/m² | - |
| 1777978443 | 15.56° C | 85% | 1010.9 hPa | 0 mm | 0.45 m/s, 57° | 117 W/m² | - |
* Rain latest hour (hover to see other rain measurements)
** Current wind speed in m/s (hover to see current wind gust speed)